Year,Month,Day,Hour,Minute,Value (Times are PST for temperature in C)
2008,11,13,00,00,9.00
2008,11,13,00,01,9.00
2008,11,13,00,02,9.00
2008,11,13,00,03,9.00
2008,11,13,00,04,9.00
2008,11,13,00,05,9.00
2008,11,13,00,06,8.90
2008,11,13,00,07,8.90
2008,11,13,00,08,8.90
2008,11,13,00,09,8.90
2008,11,13,00,10,8.90
2008,11,13,00,11,8.90
2008,11,13,00,12,8.90
2008,11,13,01,02,8.10
2008,11,13,01,03,8.10
2008,11,13,01,04,8.10
2008,11,13,01,05,8.10
2008,11,13,01,06,8.10
2008,11,13,01,07,8.10
2008,11,13,01,08,8.10
2008,11,13,01,09,8.10
2008,11,13,01,10,8.10
2008,11,13,01,11,8.10
2008,11,13,01,12,8.10
2008,11,13,01,13,8.10
2008,11,13,01,14,8.10
2008,11,13,01,15,8.10
2008,11,13,01,16,8.00
2008,11,13,01,17,8.00
2008,11,13,01,18,8.00
2008,11,13,01,19,8.00
2008,11,13,01,20,8.00
2008,11,13,01,21,8.00
2008,11,13,01,22,8.00
2008,11,13,01,23,8.00
2008,11,13,01,24,8.00
2008,11,13,01,25,8.00
2008,11,13,01,26,8.00
2008,11,13,01,27,8.00
2008,11,13,01,28,8.00
2008,11,13,01,29,8.00
2008,11,13,01,30,8.00
2008,11,13,01,31,8.00
2008,11,13,01,32,8.00
2008,11,13,01,33,8.00
2008,11,13,01,34,8.00
2008,11,13,01,35,8.00
2008,11,13,01,36,8.00
2008,11,13,01,37,7.90
2008,11,13,01,38,7.90
2008,11,13,01,39,7.90
2008,11,13,01,40,8.00
2008,11,13,01,41,8.00
2008,11,13,01,42,8.00
2008,11,13,01,43,8.00
2008,11,13,01,44,8.00
2008,11,13,01,45,8.00
2008,11,13,01,46,8.00
2008,11,13,01,47,8.00
2008,11,13,01,48,8.00
2008,11,13,01,49,8.00
2008,11,13,01,50,8.10
2008,11,13,01,51,8.10
2008,11,13,01,52,8.10
2008,11,13,01,53,8.10
2008,11,13,01,54,8.10
2008,11,13,01,55,8.10
2008,11,13,01,56,8.10
2008,11,13,01,57,8.10
2008,11,13,01,58,8.10
2008,11,13,01,59,8.10
2008,11,13,02,00,8.10
2008,11,13,02,01,8.10
2008,11,13,02,02,8.20
2008,11,13,02,03,8.20
2008,11,13,02,04,8.20
2008,11,13,02,05,8.20
2008,11,13,02,06,8.30
2008,11,13,02,07,8.40
2008,11,13,02,08,8.40
2008,11,13,02,09,8.40
2008,11,13,02,10,8.50
2008,11,13,02,11,8.50
2008,11,13,02,12,8.50
2008,11,13,02,13,8.60
2008,11,13,02,14,8.60
2008,11,13,02,15,8.70
2008,11,13,02,16,8.70
2008,11,13,02,17,8.70
2008,11,13,02,18,8.70
2008,11,13,02,19,8.70
2008,11,13,02,20,8.70
2008,11,13,02,21,8.70
2008,11,13,02,22,8.70
2008,11,13,02,23,8.70
2008,11,13,02,24,8.70
2008,11,13,02,25,8.70
2008,11,13,02,26,8.70
2008,11,13,02,27,8.70
2008,11,13,02,28,8.70
2008,11,13,02,29,8.70
2008,11,13,02,30,8.70
2008,11,13,02,31,8.70
2008,11,13,02,32,8.70
2008,11,13,02,33,8.70
2008,11,13,02,34,8.70
2008,11,13,02,35,8.70
2008,11,13,02,36,8.70
2008,11,13,02,37,8.70
2008,11,13,02,38,8.70
2008,11,13,02,39,8.70
2008,11,13,02,40,8.70
2008,11,13,02,41,8.70
2008,11,13,02,42,8.80
2008,11,13,02,43,8.80
2008,11,13,02,44,8.80
2008,11,13,02,45,8.80
2008,11,13,02,46,8.80
2008,11,13,02,47,8.80
2008,11,13,02,48,8.80
2008,11,13,02,49,8.80
2008,11,13,02,50,8.80
2008,11,13,02,51,8.80
2008,11,13,02,52,8.80
2008,11,13,02,53,8.80
2008,11,13,02,54,8.80
2008,11,13,02,55,8.80
2008,11,13,02,56,8.80
2008,11,13,02,57,8.80
2008,11,13,02,58,8.80
2008,11,13,02,59,8.80
2008,11,13,03,00,8.80
2008,11,13,03,01,8.80
2008,11,13,03,02,8.80
2008,11,13,03,03,8.80
2008,11,13,03,04,8.80
2008,11,13,03,05,8.80
2008,11,13,03,06,8.80
2008,11,13,03,07,8.80
2008,11,13,03,08,8.80
2008,11,13,03,09,8.80
2008,11,13,03,10,8.80
2008,11,13,03,11,8.90
2008,11,13,03,12,8.90
2008,11,13,03,13,8.90
2008,11,13,03,14,8.80
2008,11,13,03,15,8.80
2008,11,13,03,16,8.80
2008,11,13,03,17,8.80
2008,11,13,03,18,8.80
2008,11,13,03,19,8.80
2008,11,13,03,20,8.80
2008,11,13,03,21,8.70
2008,11,13,03,22,8.70
2008,11,13,03,23,8.70
2008,11,13,03,24,8.70
2008,11,13,03,25,8.70
2008,11,13,03,26,8.70
2008,11,13,03,27,8.70
2008,11,13,03,28,8.70
2008,11,13,03,29,8.70
2008,11,13,03,30,8.60
2008,11,13,03,31,8.60
2008,11,13,03,32,8.50
2008,11,13,03,33,8.40
2008,11,13,03,34,8.40
2008,11,13,03,35,8.30
2008,11,13,03,36,8.30
2008,11,13,03,37,8.20
2008,11,13,03,38,8.20
2008,11,13,03,39,8.10
2008,11,13,03,40,8.10
2008,11,13,03,41,8.10
2008,11,13,03,42,8.00
2008,11,13,03,43,8.00
2008,11,13,03,44,8.00
2008,11,13,03,45,8.00
2008,11,13,03,46,8.00
2008,11,13,03,47,7.90
2008,11,13,03,48,7.90
2008,11,13,03,49,7.90
2008,11,13,03,50,7.90
2008,11,13,03,51,7.90
2008,11,13,03,52,7.90
2008,11,13,03,53,7.80
2008,11,13,03,54,7.80
2008,11,13,03,55,7.80
2008,11,13,03,56,7.80
2008,11,13,03,57,7.80
2008,11,13,03,58,7.80
2008,11,13,03,59,7.80
2008,11,13,04,00,7.80
2008,11,13,04,01,7.80
2008,11,13,04,02,7.80
2008,11,13,04,03,7.80
2008,11,13,04,04,7.80
2008,11,13,04,05,7.80
2008,11,13,04,06,7.80
2008,11,13,04,07,7.80
2008,11,13,04,08,7.80
2008,11,13,04,09,7.80
2008,11,13,04,10,7.80
2008,11,13,04,11,7.80
2008,11,13,04,12,7.80
2008,11,13,04,13,7.80
2008,11,13,04,14,7.70
2008,11,13,04,15,7.70
2008,11,13,04,16,7.70
2008,11,13,04,17,7.60
2008,11,13,04,18,7.50
2008,11,13,04,19,7.50
2008,11,13,04,20,7.50
2008,11,13,04,21,7.40
2008,11,13,04,22,7.40
2008,11,13,04,23,7.40
2008,11,13,04,24,7.40
2008,11,13,04,25,7.50
2008,11,13,04,26,7.50
2008,11,13,04,27,7.50
2008,11,13,04,28,7.50
2008,11,13,04,29,7.50
2008,11,13,04,30,7.50
2008,11,13,04,31,7.50
2008,11,13,04,32,7.60
2008,11,13,04,33,7.60
2008,11,13,04,34,7.60
2008,11,13,04,35,7.60
2008,11,13,04,36,7.60
2008,11,13,04,37,7.60
2008,11,13,04,38,7.60
2008,11,13,04,39,7.60
2008,11,13,04,40,7.60
2008,11,13,04,41,7.60
2008,11,13,04,42,7.60
2008,11,13,04,43,7.60
2008,11,13,04,44,7.50
2008,11,13,04,45,7.50
2008,11,13,04,46,7.50
2008,11,13,04,47,7.40
2008,11,13,04,48,7.40
2008,11,13,04,49,7.40
2008,11,13,04,50,7.40
2008,11,13,04,51,7.40
2008,11,13,04,52,7.50
2008,11,13,04,53,7.50
2008,11,13,04,54,7.50
2008,11,13,04,55,7.50
2008,11,13,04,56,7.50
2008,11,13,04,57,7.50
2008,11,13,04,58,7.50
2008,11,13,04,59,7.50
2008,11,13,05,00,7.50
2008,11,13,05,01,7.50
2008,11,13,05,02,7.50
2008,11,13,05,03,7.50
2008,11,13,05,04,7.50
2008,11,13,05,05,7.60
2008,11,13,05,06,7.60
2008,11,13,05,07,7.60
2008,11,13,05,08,7.60
2008,11,13,05,09,7.60
2008,11,13,05,10,7.60
2008,11,13,05,11,7.60
2008,11,13,05,12,7.60
2008,11,13,05,13,7.60
2008,11,13,05,14,7.60
2008,11,13,05,15,7.60
2008,11,13,05,16,7.60
2008,11,13,05,17,7.60
2008,11,13,05,18,7.60
2008,11,13,05,19,7.60
2008,11,13,05,20,7.60
2008,11,13,05,21,7.60
2008,11,13,05,22,7.60
2008,11,13,05,23,7.70
2008,11,13,05,24,7.70
2008,11,13,05,25,7.60
2008,11,13,05,26,7.60
2008,11,13,05,27,7.60
2008,11,13,05,28,7.60
2008,11,13,05,29,7.60
2008,11,13,05,30,7.60
2008,11,13,05,31,7.60
2008,11,13,05,32,7.50
2008,11,13,05,33,7.50
2008,11,13,05,34,7.50
2008,11,13,05,35,7.40
2008,11,13,05,36,7.40
2008,11,13,05,37,7.40
2008,11,13,05,38,7.30
2008,11,13,05,39,7.30
2008,11,13,05,40,7.30
2008,11,13,05,41,7.30
2008,11,13,05,42,7.30
2008,11,13,05,43,7.20
2008,11,13,05,44,7.20
2008,11,13,05,45,7.20
2008,11,13,05,46,7.10
2008,11,13,05,47,7.10
2008,11,13,05,48,7.10
2008,11,13,05,49,7.00
2008,11,13,05,50,7.00
2008,11,13,05,51,7.00
2008,11,13,05,52,7.00
2008,11,13,05,53,7.00
2008,11,13,05,54,7.00
2008,11,13,05,55,6.90
2008,11,13,05,56,6.90
2008,11,13,05,57,6.90
2008,11,13,05,58,6.90
2008,11,13,05,59,6.80
2008,11,13,06,00,6.80
2008,11,13,06,01,6.80
2008,11,13,06,02,6.80
2008,11,13,06,03,6.80
2008,11,13,06,04,6.70
2008,11,13,06,05,6.70
2008,11,13,06,06,6.60
2008,11,13,06,07,6.60
2008,11,13,06,08,6.60
2008,11,13,06,09,6.60
2008,11,13,06,10,6.50
2008,11,13,06,11,6.40
2008,11,13,06,12,6.40
2008,11,13,06,13,6.40
2008,11,13,06,14,6.40
2008,11,13,06,15,6.30
2008,11,13,06,16,6.30
2008,11,13,06,17,6.20
2008,11,13,06,18,6.20
2008,11,13,06,19,6.10
2008,11,13,06,20,6.10
2008,11,13,06,21,6.00
2008,11,13,06,22,6.00
2008,11,13,06,23,5.90
2008,11,13,06,24,5.90
2008,11,13,06,25,5.80
2008,11,13,06,26,5.80
2008,11,13,06,27,5.80
2008,11,13,06,28,5.70
2008,11,13,06,29,5.70
2008,11,13,06,30,5.70
2008,11,13,06,31,5.70
2008,11,13,06,32,5.70
2008,11,13,06,33,5.80
2008,11,13,06,34,5.80
2008,11,13,06,35,5.90
2008,11,13,06,36,5.90
2008,11,13,06,37,5.90
2008,11,13,06,38,6.00
2008,11,13,06,39,6.00
2008,11,13,06,40,6.00
2008,11,13,06,41,6.10
2008,11,13,06,42,6.10
2008,11,13,06,43,6.20
2008,11,13,06,44,6.20
2008,11,13,06,45,6.30
2008,11,13,06,46,6.40
2008,11,13,06,47,6.50
2008,11,13,06,48,6.60
2008,11,13,06,49,6.80
2008,11,13,06,50,6.90
2008,11,13,06,51,7.10
2008,11,13,06,52,7.20
2008,11,13,06,53,7.30
2008,11,13,06,54,7.40
2008,11,13,06,55,7.50
2008,11,13,06,56,7.60
2008,11,13,06,57,7.60
2008,11,13,06,58,7.70
2008,11,13,06,59,7.80
2008,11,13,07,00,7.80
2008,11,13,07,01,7.80
2008,11,13,07,02,7.80
2008,11,13,07,03,7.80
2008,11,13,07,04,7.80
2008,11,13,07,05,7.90
2008,11,13,07,06,7.90
2008,11,13,07,07,7.90
2008,11,13,07,08,7.90
2008,11,13,07,09,7.90
2008,11,13,07,10,7.90
2008,11,13,07,11,7.90
2008,11,13,07,12,7.90
2008,11,13,07,13,7.90
2008,11,13,07,14,7.80
2008,11,13,07,15,7.80
2008,11,13,07,16,7.80
2008,11,13,07,17,7.80
2008,11,13,07,18,7.80
2008,11,13,07,19,7.80
2008,11,13,07,20,7.80
2008,11,13,07,21,7.80
2008,11,13,07,22,7.80
2008,11,13,07,23,7.80
2008,11,13,07,24,7.70
2008,11,13,07,25,7.70
2008,11,13,07,26,7.70
2008,11,13,07,27,7.60
2008,11,13,07,28,7.50
2008,11,13,07,29,7.50
2008,11,13,07,30,7.40
2008,11,13,07,31,7.30
2008,11,13,07,32,7.30
2008,11,13,07,33,7.20
2008,11,13,07,34,7.10
2008,11,13,07,35,7.00
2008,11,13,07,36,6.90
2008,11,13,07,37,6.80
2008,11,13,07,38,6.80
2008,11,13,07,39,6.70
2008,11,13,07,40,6.70
2008,11,13,07,41,6.60
2008,11,13,07,42,6.50
2008,11,13,07,43,6.40
2008,11,13,07,44,6.40
2008,11,13,07,45,6.30
2008,11,13,07,46,6.30
2008,11,13,07,47,6.20
2008,11,13,07,48,6.20
2008,11,13,07,49,6.20
2008,11,13,07,50,6.20
2008,11,13,07,51,6.10
2008,11,13,07,52,6.10
2008,11,13,07,53,6.10
2008,11,13,07,54,6.00
2008,11,13,07,55,6.00
2008,11,13,07,56,6.00
2008,11,13,07,57,5.90
2008,11,13,07,58,5.90
2008,11,13,07,59,5.90
2008,11,13,08,00,5.80
2008,11,13,08,01,5.70
2008,11,13,08,02,5.70
2008,11,13,08,03,5.70
2008,11,13,08,04,5.70
2008,11,13,08,05,5.70
2008,11,13,08,06,5.70
2008,11,13,08,07,5.70
2008,11,13,08,08,5.70
2008,11,13,08,09,5.70
2008,11,13,08,10,5.70
2008,11,13,08,11,5.70
2008,11,13,08,12,5.70
2008,11,13,08,13,5.80
2008,11,13,08,14,5.80
2008,11,13,08,15,5.80
2008,11,13,08,16,5.80
2008,11,13,08,17,5.90
2008,11,13,08,18,5.90
2008,11,13,08,19,5.90
2008,11,13,08,20,5.90
2008,11,13,08,21,5.90
2008,11,13,08,22,6.00
2008,11,13,08,23,6.00
2008,11,13,08,24,6.00
2008,11,13,08,25,6.10
2008,11,13,08,26,6.10
2008,11,13,08,27,6.20
2008,11,13,08,28,6.20
2008,11,13,08,29,6.20
2008,11,13,08,30,6.20
2008,11,13,08,31,6.20
2008,11,13,08,32,6.20
2008,11,13,08,33,6.20
2008,11,13,08,34,6.20
2008,11,13,08,35,6.20
2008,11,13,08,36,6.20
2008,11,13,08,37,6.20
2008,11,13,08,38,6.30
2008,11,13,08,39,6.30
2008,11,13,08,40,6.30
2008,11,13,08,41,6.30
2008,11,13,08,42,6.30
2008,11,13,08,43,6.30
2008,11,13,08,44,6.20
2008,11,13,08,45,6.20
2008,11,13,08,46,6.30
2008,11,13,08,47,6.30
2008,11,13,08,48,6.30
2008,11,13,08,49,6.40
2008,11,13,08,50,6.40
2008,11,13,08,51,6.40
2008,11,13,08,52,6.40
2008,11,13,08,53,6.40
2008,11,13,08,54,6.50
2008,11,13,08,55,6.60
2008,11,13,08,56,6.60
2008,11,13,08,57,6.60
2008,11,13,08,58,6.70
2008,11,13,08,59,6.70
2008,11,13,09,00,6.80
2008,11,13,09,01,6.80
2008,11,13,09,02,6.90
2008,11,13,09,03,7.00
2008,11,13,09,04,7.00
2008,11,13,09,05,7.10
2008,11,13,09,06,7.20
2008,11,13,09,07,7.30
2008,11,13,09,08,7.30
2008,11,13,09,09,7.40
2008,11,13,09,10,7.40
2008,11,13,09,11,7.50
2008,11,13,09,12,7.50
2008,11,13,09,13,7.60
2008,11,13,09,14,7.60
2008,11,13,09,15,7.70
2008,11,13,09,16,7.70
2008,11,13,09,17,7.80
2008,11,13,09,18,7.80
2008,11,13,09,19,7.80
2008,11,13,09,20,7.90
2008,11,13,09,21,7.90
2008,11,13,09,22,7.90
2008,11,13,09,23,8.00
2008,11,13,09,24,8.00
2008,11,13,09,25,8.00
2008,11,13,09,26,8.00
2008,11,13,09,27,8.00
2008,11,13,09,28,8.00
2008,11,13,09,29,8.00
2008,11,13,09,30,8.00
2008,11,13,09,31,8.10
2008,11,13,09,32,8.10
2008,11,13,09,33,8.10
2008,11,13,09,34,8.10
2008,11,13,09,35,8.10
2008,11,13,09,36,8.20
2008,11,13,09,37,8.20
2008,11,13,09,38,8.20
2008,11,13,09,39,8.20
2008,11,13,09,40,8.20
2008,11,13,09,41,8.20
2008,11,13,09,42,8.30
2008,11,13,09,43,8.30
2008,11,13,09,44,8.30
2008,11,13,09,45,8.30
2008,11,13,09,46,8.30
2008,11,13,09,47,8.40
2008,11,13,09,48,8.40
2008,11,13,09,49,8.40
2008,11,13,09,50,8.40
2008,11,13,09,51,8.40
2008,11,13,09,52,8.40
2008,11,13,09,53,8.40
2008,11,13,09,54,8.40
2008,11,13,09,55,8.40
2008,11,13,09,56,8.50
2008,11,13,09,57,8.50
2008,11,13,09,58,8.50
2008,11,13,09,59,8.50
2008,11,13,10,00,8.50
2008,11,13,10,01,8.50
2008,11,13,10,02,8.50
2008,11,13,10,03,8.60
2008,11,13,10,04,8.60
2008,11,13,10,05,8.60
2008,11,13,10,06,8.60
2008,11,13,10,07,8.60
2008,11,13,10,08,8.60
2008,11,13,10,09,8.60
2008,11,13,10,10,8.60
2008,11,13,10,11,8.60
2008,11,13,10,12,8.60
2008,11,13,10,13,8.70
2008,11,13,10,14,8.70
2008,11,13,10,15,8.70
2008,11,13,10,16,8.70
2008,11,13,10,17,8.70
2008,11,13,10,18,8.70
2008,11,13,10,19,8.70
2008,11,13,10,20,8.70
2008,11,13,10,21,8.70
2008,11,13,10,22,8.70
2008,11,13,10,23,8.70
2008,11,13,10,24,8.70
2008,11,13,10,25,8.70
2008,11,13,10,26,8.70
2008,11,13,10,27,8.70
2008,11,13,10,28,8.70
2008,11,13,10,29,8.80
2008,11,13,10,30,8.80
2008,11,13,10,31,8.80
2008,11,13,10,32,8.80
2008,11,13,10,33,8.80
2008,11,13,10,34,8.80
2008,11,13,10,35,8.80
2008,11,13,10,36,8.80
2008,11,13,10,37,8.80
2008,11,13,10,38,8.80
2008,11,13,10,39,8.80
2008,11,13,10,40,8.80
2008,11,13,10,41,8.80
2008,11,13,10,42,8.80
2008,11,13,10,43,8.80
2008,11,13,10,44,8.80
2008,11,13,10,45,8.80
2008,11,13,10,46,8.80
2008,11,13,10,47,8.90
2008,11,13,10,48,8.90
2008,11,13,10,49,8.90
2008,11,13,10,50,8.90
2008,11,13,10,51,9.00
2008,11,13,10,52,9.00
2008,11,13,10,53,9.00
2008,11,13,10,54,9.00
2008,11,13,10,55,9.10
2008,11,13,10,56,9.00
2008,11,13,10,57,9.00
2008,11,13,10,58,9.10
2008,11,13,10,59,9.10
2008,11,13,11,00,9.10
2008,11,13,11,01,9.10
2008,11,13,11,02,9.10
2008,11,13,11,03,9.10
2008,11,13,11,04,9.10
2008,11,13,11,05,9.20
2008,11,13,11,06,9.20
2008,11,13,11,07,9.20
2008,11,13,11,08,9.20
2008,11,13,11,09,9.20
2008,11,13,11,10,9.20
2008,11,13,11,11,9.20
2008,11,13,11,12,9.20
2008,11,13,11,13,9.20
2008,11,13,11,14,9.20
2008,11,13,11,15,9.20
2008,11,13,11,16,9.20
2008,11,13,11,17,9.20
2008,11,13,11,18,9.20
2008,11,13,11,19,9.20
2008,11,13,11,20,9.30
2008,11,13,11,21,9.30
2008,11,13,11,22,9.30
2008,11,13,11,23,9.30
2008,11,13,11,24,9.30
2008,11,13,11,25,9.40
2008,11,13,11,26,9.40
2008,11,13,11,27,9.50
2008,11,13,11,28,9.50
2008,11,13,11,29,9.60
2008,11,13,11,30,9.60
2008,11,13,11,31,9.60
2008,11,13,11,32,9.60
2008,11,13,11,33,9.60
2008,11,13,11,34,9.60
2008,11,13,11,35,9.60
2008,11,13,11,36,9.60
2008,11,13,11,37,9.70
2008,11,13,11,38,9.70
2008,11,13,11,39,9.70
2008,11,13,11,40,9.70
2008,11,13,11,41,9.60
2008,11,13,11,42,9.60
2008,11,13,11,43,9.70
2008,11,13,11,44,9.70
2008,11,13,11,45,9.70
2008,11,13,11,46,9.70
2008,11,13,11,47,9.70
2008,11,13,11,48,9.70
2008,11,13,11,49,9.70
2008,11,13,11,50,9.70
2008,11,13,11,51,9.70
2008,11,13,11,52,9.70
2008,11,13,11,53,9.70
2008,11,13,11,54,9.70
2008,11,13,11,55,9.70
2008,11,13,11,56,9.70
2008,11,13,11,57,9.70
2008,11,13,11,58,9.70
2008,11,13,11,59,9.70
2008,11,13,12,00,9.80
2008,11,13,12,01,9.80
2008,11,13,12,02,9.90
2008,11,13,12,03,9.90
2008,11,13,12,04,9.90
2008,11,13,12,05,9.90
2008,11,13,12,06,9.90
2008,11,13,12,07,9.90
2008,11,13,12,08,9.90
2008,11,13,12,09,10.00
2008,11,13,12,10,10.10
2008,11,13,12,11,10.10
2008,11,13,12,12,10.10
2008,11,13,12,13,10.10
2008,11,13,12,14,10.20
2008,11,13,12,15,10.20
2008,11,13,12,16,10.30
2008,11,13,12,17,10.30
2008,11,13,12,18,10.30
2008,11,13,12,19,10.30
2008,11,13,12,20,10.30
2008,11,13,12,21,10.20
2008,11,13,12,22,10.20
2008,11,13,12,23,10.20
2008,11,13,12,24,10.20
2008,11,13,12,25,10.20
2008,11,13,12,26,10.20
2008,11,13,12,27,10.20
2008,11,13,12,28,10.30
2008,11,13,12,29,10.30
2008,11,13,12,30,10.30
2008,11,13,12,31,10.30
2008,11,13,12,32,10.30
2008,11,13,12,33,10.20
2008,11,13,12,34,10.20
2008,11,13,12,35,10.30
2008,11,13,12,36,10.30
2008,11,13,12,37,10.30
2008,11,13,12,38,10.30
2008,11,13,12,39,10.20
2008,11,13,12,40,10.20
2008,11,13,12,41,10.20
2008,11,13,12,42,10.10
2008,11,13,12,43,10.10
2008,11,13,12,44,10.10
2008,11,13,12,45,10.20
2008,11,13,12,46,10.20
2008,11,13,12,47,10.20
2008,11,13,12,48,10.20
2008,11,13,12,49,10.20
2008,11,13,12,50,10.20
2008,11,13,12,51,10.20
2008,11,13,12,52,10.20
2008,11,13,12,53,10.20
2008,11,13,12,54,10.20
2008,11,13,12,55,10.30
2008,11,13,12,56,10.30
2008,11,13,12,57,10.20
2008,11,13,12,58,10.20
2008,11,13,12,59,10.20
2008,11,13,13,00,10.10
2008,11,13,13,01,10.10
2008,11,13,13,02,10.10
2008,11,13,13,03,10.10
2008,11,13,13,04,10.10
2008,11,13,13,05,10.10
2008,11,13,13,06,10.10
2008,11,13,13,07,10.10
2008,11,13,13,08,10.10
2008,11,13,13,09,10.10
2008,11,13,13,10,10.20
2008,11,13,13,11,10.20
2008,11,13,13,12,10.20
2008,11,13,13,13,10.30
2008,11,13,13,14,10.30
2008,11,13,13,15,10.20
2008,11,13,13,16,10.20
2008,11,13,13,17,10.30
2008,11,13,13,18,10.20
2008,11,13,13,19,10.20
2008,11,13,13,20,10.20
2008,11,13,13,21,10.20
2008,11,13,13,22,10.20
2008,11,13,13,23,10.20
2008,11,13,13,24,10.20
2008,11,13,13,25,10.20
2008,11,13,13,26,10.20
2008,11,13,13,27,10.20
2008,11,13,13,28,10.30
2008,11,13,13,29,10.30
2008,11,13,13,30,10.30
2008,11,13,13,31,10.30
2008,11,13,13,32,10.30
2008,11,13,13,33,10.20
2008,11,13,13,34,10.20
2008,11,13,13,35,10.20
2008,11,13,13,36,10.20
2008,11,13,13,37,10.20
2008,11,13,13,38,10.30
2008,11,13,13,39,10.30
2008,11,13,13,40,10.40
2008,11,13,13,41,10.40
2008,11,13,13,42,10.40
2008,11,13,13,43,10.40
2008,11,13,13,44,10.40
2008,11,13,13,45,10.40
2008,11,13,13,46,10.40
2008,11,13,13,47,10.40
2008,11,13,13,48,10.40
2008,11,13,13,49,10.40
2008,11,13,13,50,10.30
2008,11,13,13,51,10.30
2008,11,13,13,52,10.20
2008,11,13,13,53,10.20
2008,11,13,13,54,10.20
2008,11,13,13,55,10.20
2008,11,13,13,56,10.20
2008,11,13,13,57,10.10
2008,11,13,13,58,10.10
2008,11,13,13,59,10.10
2008,11,13,14,00,10.10
2008,11,13,14,01,10.10
2008,11,13,14,02,10.10
2008,11,13,14,03,10.10
2008,11,13,14,04,10.10
2008,11,13,14,05,10.10
2008,11,13,14,06,10.10
2008,11,13,14,07,10.10
2008,11,13,14,08,10.10
2008,11,13,14,09,10.10
2008,11,13,14,10,10.10
2008,11,13,14,11,10.10
2008,11,13,14,12,10.10
2008,11,13,14,13,10.10
2008,11,13,14,14,10.10
2008,11,13,14,15,10.10
2008,11,13,14,16,10.10
2008,11,13,14,17,10.10
2008,11,13,14,18,10.10
2008,11,13,14,19,10.10
2008,11,13,14,20,10.00
2008,11,13,14,21,9.90
2008,11,13,14,22,9.90
2008,11,13,14,23,9.90
2008,11,13,14,24,9.90
2008,11,13,14,25,9.90
2008,11,13,14,26,9.80
2008,11,13,14,27,9.80
2008,11,13,14,28,9.80
2008,11,13,14,29,9.70
2008,11,13,14,30,9.70
2008,11,13,14,31,9.70
2008,11,13,14,32,9.70
2008,11,13,14,33,9.70
2008,11,13,14,34,9.70
2008,11,13,14,35,9.70
2008,11,13,14,36,9.70
2008,11,13,14,37,9.70
2008,11,13,14,38,9.70
2008,11,13,14,39,9.70
2008,11,13,14,40,9.70
2008,11,13,14,41,9.70
2008,11,13,14,42,9.60
2008,11,13,14,43,9.60
2008,11,13,14,44,9.60
2008,11,13,14,45,9.60
2008,11,13,14,46,9.60
2008,11,13,14,47,9.60
2008,11,13,14,48,9.60
2008,11,13,14,49,9.60
2008,11,13,14,50,9.60
2008,11,13,14,51,9.60
2008,11,13,14,52,9.60
2008,11,13,14,53,9.60
2008,11,13,14,54,9.60
2008,11,13,14,55,9.70
2008,11,13,14,56,9.70
2008,11,13,14,57,9.70
2008,11,13,14,58,9.70
2008,11,13,14,59,9.70
2008,11,13,15,00,9.70
2008,11,13,15,01,9.60
2008,11,13,15,02,9.60
2008,11,13,15,03,9.60
2008,11,13,15,04,9.60
2008,11,13,15,05,9.60
2008,11,13,15,06,9.60
2008,11,13,15,07,9.60
2008,11,13,15,08,9.60
2008,11,13,15,09,9.60
2008,11,13,15,10,9.50
2008,11,13,15,11,9.50
2008,11,13,15,12,9.50
2008,11,13,15,13,9.40
2008,11,13,15,14,9.40
2008,11,13,15,15,9.40
2008,11,13,15,16,9.30
2008,11,13,15,17,9.30
2008,11,13,15,18,9.30
2008,11,13,15,19,9.30
2008,11,13,15,20,9.30
2008,11,13,15,21,9.30
2008,11,13,15,22,9.30
2008,11,13,15,23,9.20
2008,11,13,15,24,9.20
2008,11,13,15,25,9.20
2008,11,13,15,26,9.20
2008,11,13,15,27,9.20
2008,11,13,15,28,9.20
2008,11,13,15,29,9.20
2008,11,13,15,30,9.20
2008,11,13,15,31,9.10
2008,11,13,15,32,9.10
2008,11,13,15,33,9.10
2008,11,13,15,34,9.10
2008,11,13,15,35,9.10
2008,11,13,15,36,9.10
2008,11,13,15,37,9.10
2008,11,13,15,38,9.10
2008,11,13,15,39,9.10
2008,11,13,15,40,9.00
2008,11,13,15,41,9.00
2008,11,13,15,42,9.00
2008,11,13,15,43,9.00
2008,11,13,15,44,9.00
2008,11,13,15,45,9.00
2008,11,13,15,46,9.00
2008,11,13,15,47,9.00
2008,11,13,15,48,9.00
2008,11,13,15,49,9.00
2008,11,13,15,50,8.90
2008,11,13,15,51,8.90
2008,11,13,15,52,8.90
2008,11,13,15,53,8.90
2008,11,13,15,54,8.90
2008,11,13,15,55,8.80
2008,11,13,15,56,8.80
2008,11,13,15,57,8.80
2008,11,13,15,58,8.80
2008,11,13,15,59,8.80
2008,11,13,16,00,8.80
2008,11,13,16,01,8.80
2008,11,13,16,02,8.80
2008,11,13,16,03,8.80
2008,11,13,16,04,8.80
2008,11,13,16,05,8.80
2008,11,13,16,06,8.80
2008,11,13,16,07,8.80
2008,11,13,16,08,8.80
2008,11,13,16,09,8.70
2008,11,13,16,10,8.70
2008,11,13,16,11,8.70
2008,11,13,16,12,8.70
2008,11,13,16,13,8.70
2008,11,13,16,14,8.70
2008,11,13,16,15,8.70
2008,11,13,16,16,8.70
2008,11,13,16,17,8.70
2008,11,13,16,18,8.70
2008,11,13,16,19,8.70
2008,11,13,16,20,8.60
2008,11,13,16,21,8.60
2008,11,13,16,22,8.60
2008,11,13,16,23,8.50
2008,11,13,16,24,8.50
2008,11,13,16,25,8.50
2008,11,13,16,26,8.40
2008,11,13,16,27,8.40
2008,11,13,16,28,8.30
2008,11,13,16,29,8.30
2008,11,13,16,30,8.20
2008,11,13,16,31,8.20
2008,11,13,16,32,8.20
2008,11,13,16,33,8.20
2008,11,13,16,34,8.20
2008,11,13,16,35,8.10
2008,11,13,16,36,8.10
2008,11,13,16,37,8.00
2008,11,13,16,38,8.00
2008,11,13,16,39,8.00
2008,11,13,16,40,7.90
2008,11,13,16,41,7.90
2008,11,13,16,42,7.80
2008,11,13,16,43,7.80
2008,11,13,16,44,7.80
2008,11,13,16,45,7.80
2008,11,13,16,46,7.80
2008,11,13,16,47,7.80
2008,11,13,16,48,7.70
2008,11,13,16,49,7.70
2008,11,13,16,50,7.70
2008,11,13,16,51,7.60
2008,11,13,16,52,7.60
2008,11,13,16,53,7.60
2008,11,13,16,54,7.50
2008,11,13,16,55,7.50
2008,11,13,16,56,7.50
2008,11,13,16,57,7.50
2008,11,13,16,58,7.50
2008,11,13,16,59,7.50
2008,11,13,17,00,7.40
2008,11,13,17,01,7.40
2008,11,13,17,02,7.40
2008,11,13,17,03,7.30
2008,11,13,17,04,7.30
2008,11,13,17,05,7.30
2008,11,13,17,06,7.30
2008,11,13,17,07,7.30
2008,11,13,17,08,7.30
2008,11,13,17,09,7.20
2008,11,13,17,10,7.20
2008,11,13,17,11,7.10
2008,11,13,17,12,7.10
2008,11,13,17,13,7.00
2008,11,13,17,14,7.00
2008,11,13,17,15,6.90
2008,11,13,17,16,6.90
2008,11,13,17,17,6.80
2008,11,13,17,18,6.80
2008,11,13,17,19,6.80
2008,11,13,17,20,6.70
2008,11,13,17,21,6.70
2008,11,13,17,22,6.70
2008,11,13,17,23,6.60
2008,11,13,17,24,6.60
2008,11,13,17,25,6.60
2008,11,13,17,26,6.60
2008,11,13,17,27,6.60
2008,11,13,17,28,6.60
2008,11,13,17,29,6.60
2008,11,13,17,30,6.50
2008,11,13,17,31,6.40
2008,11,13,17,32,6.40
2008,11,13,17,33,6.40
2008,11,13,17,34,6.40
2008,11,13,17,35,6.50
2008,11,13,17,36,6.60
2008,11,13,17,37,6.60
2008,11,13,17,38,6.70
2008,11,13,17,39,6.80
2008,11,13,17,40,6.80
2008,11,13,17,41,6.90
2008,11,13,17,42,6.90
2008,11,13,17,43,7.00
2008,11,13,17,44,7.10
2008,11,13,17,45,7.10
2008,11,13,17,46,7.20
2008,11,13,17,47,7.30
2008,11,13,17,48,7.30
2008,11,13,17,49,7.30
2008,11,13,17,50,7.30
2008,11,13,17,51,7.30
2008,11,13,17,52,7.40
2008,11,13,17,53,7.40
2008,11,13,17,54,7.40
2008,11,13,17,55,7.40
2008,11,13,17,56,7.40
2008,11,13,17,57,7.40
2008,11,13,17,58,7.40
2008,11,13,17,59,7.40
2008,11,13,18,00,7.30
2008,11,13,18,01,7.30
2008,11,13,18,02,7.30
2008,11,13,18,03,7.30
2008,11,13,18,04,7.30
2008,11,13,18,05,7.30
2008,11,13,18,06,7.30
2008,11,13,18,07,7.30
2008,11,13,18,08,7.20
2008,11,13,18,09,7.20
2008,11,13,18,10,7.20
2008,11,13,18,11,7.10
2008,11,13,18,12,7.10
2008,11,13,18,13,7.10
2008,11,13,18,14,7.10
2008,11,13,18,15,7.10
2008,11,13,18,16,7.00
2008,11,13,18,17,7.00
2008,11,13,18,18,7.00
2008,11,13,18,19,7.00
2008,11,13,18,20,7.00
2008,11,13,18,21,7.00
2008,11,13,18,22,7.00
2008,11,13,18,23,7.00
2008,11,13,18,24,7.00
2008,11,13,18,25,7.00
2008,11,13,18,26,7.10
2008,11,13,18,27,7.10
2008,11,13,18,28,7.10
2008,11,13,18,29,7.10
2008,11,13,18,30,7.20
2008,11,13,18,31,7.20
2008,11,13,18,32,7.20
2008,11,13,18,33,7.20
2008,11,13,18,34,7.30
2008,11,13,18,35,7.30
2008,11,13,18,36,7.30
2008,11,13,18,37,7.30
2008,11,13,18,38,7.30
2008,11,13,18,39,7.30
2008,11,13,18,40,7.30
2008,11,13,18,41,7.30
2008,11,13,18,42,7.20
2008,11,13,18,43,7.20
2008,11,13,18,44,7.20
2008,11,13,18,45,7.10
2008,11,13,18,46,7.10
2008,11,13,18,47,7.00
2008,11,13,18,48,7.00
2008,11,13,18,49,7.00